Find Starlink 11516

NORAD ID: 62522 Int'l Des: 2025-004 Owner: SPXS Country: US Constellation: starlink operational
LEOCIRCULAR

实时位置

正在加载3D地球...

关于 Starlink 11516

正在加载描述...

即将过境

Passes for default location (London). Set your location on the main map for personalized predictions.

高度历史

Loading altitude history...

两行轨道根数

1 62522U 25004M 26125.87625462 .00171287 00000-0 13115-2 0 9993
2 62522 43.0014 85.9209 0001954 269.4940 90.5704 15.70830515 76202
Epoch: May 5, 2026 • Age: 5 hours

当前状态

高度 356.2 km
速度 7.70 km/s
星下点 -0.56°S, 5.6°E
发射日期 Jan 8, 2025
运行时间 1.3 years
类型 internet

技术详情

分类 Payload
质量 960.00 kg
干质量 910.00 kg
总质量 960.00 kg
长度 0.30 m
直径 4.10 m
跨度 29.00 m
形状 Box + pan
制造商 SPXS
平台类型 Starlink V2MD
阶段状态 In Orbit
所有者/国家 SPXS/US

Most Searched